Theta_e
313 314 314 314 314 313 314 315 316 316 315 316 316 316 316 316 315 316 316 316 316 316 317 317 317 316 314 314 314 318 329 336 343 345 348 347 343 339 337 335 335 333 326 323
312 312 312 313 313 313 314 316 316 315 315 315 316 317 316 316 317 316 316 316 316 316 316 316 316 317 315 314 314 320 331 340 337 339 335 336 339 340 337 337 335 333 327 324
313 313 312 313 314 314 314 317 318 316 316 316 317 319 318 317 317 316 316 316 316 316 316 317 317 316 317 314 315 319 329 342 337 336 336 336 344 343 339 338 335 333 327 324
315 313 313 313 314 314 317 316 317 317 318 318 317 322 318 318 318 317 317 317 316 316 316 317 317 317 316 317 316 316 322 333 340 336 334 333 336 345 339 338 333 330 325 323
312 313 313 314 314 314 316 316 315 315 317 316 316 319 316 316 317 317 317 317 316 316 316 316 316 316 316 317 317 316 315 320 328 332 338 341 343 344 338 338 333 331 324 324
315 313 313 314 314 315 316 314 315 315 315 317 317 317 316 316 317 318 318 317 316 316 316 316 316 316 316 316 317 316 315 316 327 338 342 344 342 342 338 338 334 331 324 328
313 313 313 313 314 313 314 316 319 320 318 319 316 317 317 317 317 317 318 317 316 316 316 316 316 316 316 317 316 316 317 316 317 340 342 341 337 341 338 338 333 327 326 328
315 315 313 313 312 314 314 315 318 321 319 317 315 316 315 315 315 315 315 315 316 316 315 315 316 316 316 316 315 316 318 317 316 322 341 339 340 339 337 335 331 328 331 329
316 313 312 312 313 313 316 318 315 318 317 317 315 315 315 315 315 316 316 315 316 315 316 315 314 314 315 315 316 316 317 316 317 316 335 341 340 341 340 336 332 333 337 337
314 316 312 313 312 314 315 314 320 318 320 318 315 315 315 315 315 315 316 317 316 317 316 316 316 316 315 315 316 316 315 318 317 317 320 340 332 339 341 338 337 339 339 340
314 316 313 312 314 315 315 318 316 317 319 319 317 315 315 315 316 316 315 316 315 315 315 315 315 315 316 318 316 316 316 316 326 321 318 326 337 336 339 339 338 337 335 339
313 316 314 313 313 314 315 316 316 319 318 318 317 317 314 315 316 315 314 313 313 313 312 312 313 314 315 316 319 317 316 316 318 320 317 320 338 340 340 338 339 339 340 339
313 314 316 314 313 314 315 313 313 315 316 316 318 317 314 314 314 314 313 312 311 311 311 310 311 312 314 315 316 320 318 316 322 325 321 320 321 336 341 339 338 340 340 339
314 314 315 315 314 315 314 315 314 314 315 315 316 316 315 314 314 314 312 312 312 311 310 310 310 310 311 314 315 316 322 317 320 331 334 330 326 335 342 337 337 339 339 339
314 317 315 314 313 312 314 314 314 313 314 316 314 314 314 314 314 313 312 311 310 310 310 310 310 309 309 312 314 315 320 324 325 331 334 337 337 336 338 337 338 338 338 336
311 313 313 313 312 312 313 313 313 314 313 315 315 315 313 311 310 309 309 308 308 308 308 309 309 308 309 310 313 314 318 327 328 331 334 337 336 336 336 335 338 337 334 331
310 313 313 314 312 313 314 313 313 313 311 312 312 312 310 310 309 308 306 306 306 306 307 308 307 307 308 308 311 313 316 329 329 331 334 337 334 335 335 335 336 334 333 332
313 313 314 315 313 313 312 308 308 309 309 309 310 310 309 307 305 305 304 304 304 304 304 305 305 306 307 307 309 312 321 330 330 331 334 335 334 335 333 334 336 333 333 330
311 312 313 314 313 313 313 309 309 309 308 307 306 305 304 303 302 302 302 303 303 303 303 304 304 305 305 306 309 314 326 332 332 331 334 333 330 335 336 332 331 330 329 323
312 312 311 312 314 314 313 308 308 303 307 304 304 303 302 301 302 304 303 302 302 303 304 303 303 304 305 307 309 323 328 332 331 331 333 334 332 333 332 332 328 326 322 319
311 310 312 312 313 313 310 310 309 311 311 303 302 301 300 301 301 300 300 300 301 302 305 305 306 307 307 309 321 324 325 330 330 331 331 330 332 333 329 328 327 322 320 319
312 313 313 313 313 313 310 310 308 306 302 301 300 299 299 300 300 300 304 308 306 304 303 305 307 308 316 322 323 323 328 327 329 329 328 328 329 326 325 327 323 323 320 319
313 313 313 313 315 312 311 308 305 302 300 299 298 298 298 298 301 308 310 309 307 306 307 308 311 319 321 323 325 323 325 325 326 328 326 327 325 326 327 327 322 320 320 318
312 309 312 312 313 312 307 305 303 301 299 298 299 299 302 305 312 311 310 309 309 309 309 315 317 320 322 323 322 322 323 322 319 321 323 317 321 322 321 324 320 320 318 317
311 310 312 312 312 306 307 303 301 300 300 300 303 305 311 319 319 318 317 314 312 313 318 318 319 320 318 318 319 319 321 321 318 314 316 315 313 314 313 317 320 319 315 316
310 313 313 313 306 302 302 301 300 300 300 301 303 306 313 319 318 319 319 320 320 319 319 320 318 313 311 313 314 316 320 319 314 310 311 310 311 314 316 320 312 315 316 314
Wind_Speed
4 6 14 19 12 14 16 20 25 26 22 25 24 26 25 25 26 23 25 23 23 22 21 19 16 11 15 20 23 25 30 37 36 34 42 41 36 35 35 34 31 28 29 29
9 13 11 6 14 16 16 20 26 24 18 17 22 29 27 21 27 29 31 30 27 24 22 23 19 15 16 20 22 26 32 34 38 38 36 39 44 36 32 33 32 30 30 31
10 13 12 12 19 19 14 16 18 19 19 17 20 31 23 21 23 25 28 29 28 27 24 23 24 22 19 20 21 23 31 33 34 39 43 36 32 32 35 37 36 35 32 33
7 5 10 17 19 11 13 6 10 17 16 13 9 17 18 20 20 17 21 22 24 24 23 22 22 24 27 23 20 21 26 33 37 42 40 45 36 40 43 40 38 35 33 35
6 11 19 19 11 9 12 11 16 17 18 17 19 11 10 10 15 18 15 16 16 18 20 22 22 25 31 32 27 23 21 28 33 36 40 37 38 42 43 41 40 37 36 37
14 17 10 9 13 12 9 14 21 14 8 8 18 16 12 8 8 9 3 4 3 7 12 17 18 20 26 36 34 30 26 25 29 31 35 38 39 47 44 42 41 40 38 39
18 3 7 6 12 14 8 13 6 3 3 6 3 9 14 20 20 14 13 15 6 3 7 11 15 17 23 34 38 35 31 28 25 31 33 35 40 39 41 40 43 42 40 40
9 15 7 3 20 16 21 8 5 6 5 12 12 9 5 9 13 16 17 10 1 5 6 9 15 16 18 25 28 37 34 31 28 27 33 29 41 42 43 40 41 40 39 38
10 12 23 20 13 3 2 6 2 6 12 8 6 9 16 8 7 3 9 7 5 7 9 11 5 11 16 21 25 30 33 33 31 28 32 37 36 42 42 40 39 39 39 38
5 18 8 7 18 9 12 1 4 4 5 6 6 11 11 17 13 2 5 9 9 9 9 10 9 6 7 14 22 27 29 34 33 28 27 35 33 38 40 38 39 33 39 39
10 4 12 17 8 16 6 3 5 4 5 6 11 8 6 14 12 8 10 6 6 9 11 12 13 12 8 10 14 26 29 32 29 31 29 33 31 33 40 38 38 32 32 40
3 4 12 21 22 12 15 15 10 6 7 8 9 13 17 18 15 7 5 6 8 11 14 17 15 18 16 12 13 19 29 30 31 32 30 25 39 33 45 40 39 34 36 38
7 3 9 10 3 2 9 11 14 14 13 23 15 14 3 9 12 14 14 17 18 17 17 19 22 20 21 18 15 15 22 30 26 27 32 29 36 34 42 42 42 38 39 42
17 6 13 12 22 21 21 26 24 17 9 18 20 30 24 25 27 26 35 32 29 29 23 23 24 29 25 26 22 19 18 25 28 25 27 29 39 42 40 43 42 39 37 44
4 9 16 19 22 24 28 29 29 21 23 18 27 29 27 26 24 21 28 33 36 36 33 32 25 25 30 29 27 24 20 19 27 28 30 36 40 39 42 42 39 33 45 44
6 7 15 21 22 23 28 24 18 18 19 19 26 27 25 21 21 23 33 40 40 39 39 32 27 25 27 29 30 26 22 17 27 32 33 35 39 37 35 36 36 39 45 44
6 4 8 19 19 25 14 6 4 9 14 15 18 27 23 25 24 25 30 34 35 34 36 32 31 30 30 32 29 28 22 16 29 34 39 41 41 44 43 39 36 49 45 42
6 6 4 12 17 9 7 4 5 12 17 21 23 26 23 20 30 37 35 35 38 39 37 36 32 28 29 30 29 25 19 22 32 37 43 47 45 42 37 43 46 51 47 46
12 4 7 5 10 22 13 3 2 10 30 16 7 10 22 37 35 42 37 32 39 41 44 44 41 40 38 32 27 24 18 26 36 41 45 51 47 48 48 51 55 54 53 49
6 10 6 10 9 8 4 3 11 7 14 5 11 27 27 27 15 20 28 19 20 19 24 26 27 27 29 28 23 20 20 30 40 45 49 55 48 54 60 61 59 55 52 53
8 6 9 10 10 10 1 11 15 6 13 26 39 36 34 22 25 45 54 47 33 28 14 11 15 21 21 17 18 19 20 36 42 46 51 56 54 57 61 65 62 58 54 51
5 5 4 5 10 8 16 22 3 13 34 36 43 45 43 47 50 43 38 31 24 21 24 21 16 13 13 15 18 20 29 42 47 51 54 55 59 64 67 64 59 57 54 52
5 4 6 5 8 27 32 17 27 31 34 42 43 50 48 47 46 35 9 2 12 16 17 15 16 15 18 18 31 34 42 42 42 44 48 52 59 63 62 60 59 57 53 54
6 4 5 9 10 18 26 21 33 37 40 46 48 47 44 39 25 11 3 6 9 12 16 23 20 25 24 24 40 44 48 39 26 41 47 51 60 63 63 63 61 59 58 53
12 9 8 13 18 19 18 32 38 44 48 44 49 42 32 7 13 10 14 13 16 20 20 22 28 27 28 34 36 40 44 39 38 53 57 55 58 62 59 63 60 59 55 52
5 5 5 11 13 9 23 35 39 44 44 44 41 37 29 16 19 20 22 20 21 24 31 27 27 32 35 38 44 46 47 56 62 62 62 63 67 65 64 63 61 53 46 38
Wind_Direction
344 276 275 303 325 300 295 290 285 284 285 287 282 279 278 279 274 266 268 264 263 264 266 269 261 265 251 235 227 230 215 208 207 210 211 212 215 215 216 216 216 217 214 205
301 283 316 292 316 303 293 291 284 284 288 280 284 276 278 276 271 269 265 262 254 254 251 253 249 247 238 243 227 225 224 213 214 206 215 221 215 212 215 217 216 216 214 206
284 282 312 311 314 304 303 289 294 296 307 281 279 276 276 273 264 264 258 252 250 243 237 237 235 232 232 243 243 230 227 215 218 216 210 214 208 215 217 213 216 213 211 207
287 286 293 307 303 292 294 302 298 302 306 298 335 287 290 286 276 262 252 245 240 234 234 233 238 235 224 230 236 241 232 226 217 214 216 225 228 218 216 212 214 213 210 206
293 300 306 307 293 309 289 302 307 299 283 291 262 263 278 287 277 272 268 259 242 240 236 240 239 240 233 223 233 234 239 238 231 230 228 230 226 219 214 213 213 211 207 204
274 291 290 277 308 294 293 306 304 289 277 257 277 244 287 293 280 302 325 23 285 243 245 244 238 229 224 224 225 232 231 241 234 229 221 225 223 214 211 214 212 210 204 202
322 295 279 283 306 310 278 322 302 256 218 264 329 308 259 279 279 279 293 323 336 289 270 255 245 234 225 221 225 227 225 228 239 227 214 209 217 228 218 213 212 207 203 202
330 323 346 248 308 293 288 266 272 297 290 301 294 263 266 278 295 292 295 294 95 20 337 279 252 247 233 227 227 230 227 224 232 231 217 200 195 213 214 215 216 209 206 203
321 295 310 295 295 277 313 220 295 271 257 268 241 267 286 309 281 333 36 52 82 53 19 10 337 246 237 231 232 233 234 233 233 236 219 203 201 208 214 212 215 213 206 201
305 303 314 321 305 292 241 124 258 209 274 259 259 273 275 289 284 19 42 68 57 35 8 3 5 358 270 248 230 232 235 234 237 235 237 212 201 210 216 215 209 207 206 201
309 231 291 309 283 302 272 230 232 275 239 277 281 271 267 276 276 302 344 87 346 334 330 333 339 341 333 277 247 235 235 237 231 231 231 230 215 212 217 216 214 217 216 207
324 277 287 289 287 300 258 263 259 255 263 248 280 271 268 269 276 299 326 333 332 314 316 313 313 313 316 308 268 257 236 234 236 234 233 229 202 207 211 212 219 219 209 202
325 255 296 294 239 162 259 281 289 271 266 265 273 259 299 275 296 268 284 295 297 298 299 306 303 300 298 297 291 277 250 234 228 227 229 217 206 220 214 213 216 209 201 195
295 221 251 273 282 295 290 285 288 272 261 279 266 280 279 272 273 277 279 287 288 286 287 288 288 293 287 281 282 283 270 239 223 211 207 206 193 215 202 207 209 195 193 181
276 260 269 271 282 288 280 281 287 277 268 264 276 279 283 283 284 283 282 284 283 281 279 280 277 276 281 269 270 276 280 248 214 205 200 192 198 189 198 202 202 186 180 173
270 276 295 288 289 288 291 287 282 275 278 273 271 274 277 291 295 278 278 283 275 272 272 263 260 266 271 267 262 270 276 246 207 200 196 194 190 190 207 199 179 177 168 161
265 264 300 294 314 310 288 255 223 268 264 266 277 286 302 289 288 285 283 270 266 267 270 259 258 264 262 262 259 262 270 231 204 196 185 187 190 187 189 191 185 168 165 166
254 271 275 294 312 294 326 143 263 266 274 278 274 282 289 297 293 282 273 266 264 262 259 254 257 260 260 254 259 255 251 200 200 189 183 184 187 189 192 183 175 166 164 162
223 276 301 281 303 284 286 72 292 304 302 291 270 290 296 294 290 280 277 273 265 261 254 251 254 258 263 255 247 245 221 202 192 186 176 185 184 183 184 176 168 164 166 161
172 240 264 297 286 298 17 307 294 280 282 175 304 303 302 306 293 283 296 278 279 274 260 248 241 240 241 240 235 225 205 196 188 185 176 179 180 181 176 171 165 164 162 155
307 309 269 288 290 271 169 313 327 279 318 315 306 300 301 294 282 282 289 286 267 251 236 238 248 237 229 222 211 212 204 183 182 171 177 175 178 176 173 168 167 163 157 151
291 315 295 295 294 300 324 330 315 300 299 300 300 303 301 299 300 300 293 277 258 229 226 240 238 207 193 201 199 191 171 172 178 179 170 169 173 169 168 166 164 158 155 151
275 248 290 277 277 292 313 318 309 306 298 301 302 304 301 299 302 314 320 147 172 188 205 201 166 153 177 173 169 160 167 167 169 171 170 172 170 169 168 164 156 155 157 154
287 283 252 296 263 311 322 327 319 317 310 311 312 307 305 294 305 347 64 127 153 172 167 154 140 156 159 162 161 161 165 168 162 173 172 160 164 163 162 161 158 157 157 157
280 302 272 274 290 322 329 329 325 323 328 331 338 338 334 28 71 74 85 98 121 135 149 145 155 152 151 153 161 166 167 175 185 156 158 163 147 149 146 153 158 157 157 159
208 254 293 293 342 333 316 324 331 331 332 339 340 350 21 108 99 107 102 117 127 121 139 153 148 132 135 145 150 156 167 172 160 148 149 152 149 151 151 151 150 154 153 157